TROMSO/LANGNES current weather conditions

sailwx.info

Wind from 120 at 2 knots

Air temperature -8.0° C
Visibility: greater than 5.4 NM
Dewpoint -11.0° C

Last reported at 2020-Jan-26 07:50 UTC.
Time now 2020-Jan-26 08:33 UTC

Location: N 69°41' E 018°55'.
View on Google Maps.

See reports from other nearby stations

  
Tides and Currents Weather Stations Pressure Air Temp Water Temp Dewpoint Dewpoint Depression Visibility Wind Speed Wind Dir Waves Ship Positions
date/time (UTC)wind fromknots sea level pressurealtimeterstation pressurevisibilityair tempwater tempwave heightnotes
2020-Jan-26 07:50 120 2 5.4-8.0
2020-Jan-26 07:20 080 5 5.4-6.0 Showers in the vicinity.
2020-Jan-26 06:50 040 8 5.4-6.0 Light snow showers.
2020-Jan-26 06:20 020 6 5.4-8.0 Showers in the vicinity.
2020-Jan-26 05:50 040 2 5.4-9.0 Showers in the vicinity.
2020-Jan-26 05:20 050 4 2.2-7.0 Light snow showers.
2020-Jan-26 04:50 2.2-9.0 Light snow showers.
2020-Jan-26 04:20 100 2 2.2-8.0 Light snow showers.
2020-Jan-26 03:50 070 2 2.2-10.0 Light snow showers.
2020-Jan-26 02:20 130 2 3.8-9.0 Light snow showers.
2020-Jan-26 01:50 090 4 2.2-8.0 Light snow showers.
2020-Jan-26 01:20 050 5 2.2-8.0 Light snow showers.
2020-Jan-26 00:20 040 2 2.2-8.0 Light snow showers.
2020-Jan-25 23:50 060 2 2.2-9.0 Light snow showers.
2020-Jan-25 23:20 050 4 5.4-9.0
2020-Jan-25 22:50 060 5 5.4-9.0
2020-Jan-25 22:20 040 2 5.4-10.0
2020-Jan-25 21:50 060 5 5.4-9.0
2020-Jan-25 21:20 040 4 5.4-9.0
2020-Jan-25 20:50 070 5 5.4-8.0
2020-Jan-25 20:20 060 7 5.4-7.0
2020-Jan-25 19:50 060 7 5.4-7.0
2020-Jan-25 19:20 070 7 5.4-7.0
2020-Jan-25 18:50 040 8 5.4-7.0
2020-Jan-25 18:20 030 9 5.4-7.0
2020-Jan-25 17:50 040 11 5.4-6.0
2020-Jan-25 17:20 020 11 5.4-6.0 Light snow showers.
2020-Jan-25 16:50 010 15 5.4-6.0
2020-Jan-25 16:20 040 8 5.4-4.0
2020-Jan-25 15:50 020 13 5.4-4.0
2020-Jan-25 15:20 010 13 5.4-4.0 Light snow showers.
2020-Jan-25 14:50 020 15 5.4-4.0 Light snow showers.
2020-Jan-25 14:20 010 14 5.4-3.0 Showers in the vicinity.
2020-Jan-25 13:50 030 2 5.4-3.0 Showers in the vicinity.
2020-Jan-25 13:20 040 12 5.4-3.0 Light snow showers.
2020-Jan-25 12:50 030 9 5.4-3.0 Light snow showers.
2020-Jan-25 12:20 040 9 5.4-2.0 Light snow showers.
2020-Jan-25 11:50 040 8 5.4-3.0 Light snow showers.
2020-Jan-25 11:20 050 8 5.4-3.0 Showers in the vicinity.
2020-Jan-25 10:50 030 9 5.4-4.0 Showers in the vicinity.
2020-Jan-25 10:20 020 7 5.4-4.0
2020-Jan-25 09:50 5.4-5.0
2020-Jan-25 09:20 5.4-4.0
2020-Jan-25 08:50 040 7 5.4-3.0
2020-Jan-25 08:20 050 9 5.4-2.0
2020-Jan-25 07:50 050 6 5.4-3.0
2020-Jan-25 07:20 040 6 5.4-2.0 Showers in the vicinity.
2020-Jan-25 06:50 050 6 5.4-2.0 Light snow showers.
2020-Jan-25 06:20 030 2 4.3-2.0 Light snow.
2020-Jan-25 05:50 0.5-1.0 Snow.
2020-Jan-25 05:20 190 6 4.3-2.0 Light snow.
2020-Jan-25 04:50 190 9 4.3-2.0 Light snow.
2020-Jan-25 03:50 210 11 0.6-1.0 Snow showers.
2020-Jan-25 02:50 200 8 5.4-2.0
2020-Jan-25 02:20 190 6 5.4-2.0
2020-Jan-25 01:50 220 6 1.3-2.0 Light snow showers.
2020-Jan-25 01:20 220 8 2.7-2.0 Light snow showers.
2020-Jan-25 00:50 190 9 5.4-2.0 Light snow showers.
2020-Jan-25 00:20 190 7 5.4-2.0
2020-Jan-24 23:50 180 6 3.8-1.0 Light snow showers.
2020-Jan-24 23:20 190 7 5.4-2.0
2020-Jan-24 22:50 230 9 5.4-1.0
2020-Jan-24 22:20 200 8 5.4-2.0
2020-Jan-24 21:50 190 8 5.4-2.0
2020-Jan-24 21:20 190 6 5.4-2.0
2020-Jan-24 20:50 190 6 5.4-1.0
2020-Jan-24 20:20 180 6 5.4-1.0
2020-Jan-24 19:50 170 6 5.4-1.0
2020-Jan-24 19:20 180 7 5.4-2.0
2020-Jan-24 18:50 180 7 5.4-2.0
2020-Jan-24 18:20 190 8 5.4-2.0
2020-Jan-24 17:50 180 9 5.4-1.0
2020-Jan-24 17:20 190 7 5.4-1.0
2020-Jan-24 16:50 210 6 5.4-1.0
2020-Jan-24 16:20 180 7 5.4-1.0
2020-Jan-24 15:50 190 8 5.4-1.0
2020-Jan-24 15:20 200 5 5.4-1.0
2020-Jan-24 14:50 240 8 5.4-0.0 Light snow showers.
2020-Jan-24 14:20 210 13 5.4-0.0
2020-Jan-24 13:50 190 8 5.4-1.0 Showers in the vicinity.
2020-Jan-24 13:20 180 8 5.4-1.0 Showers in the vicinity.
2020-Jan-24 12:20 180 11 5.4-1.0
2020-Jan-24 11:50 190 13 5.4-0.0 Showers in the vicinity.
2020-Jan-24 11:20 200 13 5.4-0.0
2020-Jan-24 10:50 220 12 5.4-0.0
2020-Jan-24 10:20 230 14 2.7-1.0 Light snow showers.
2020-Jan-24 09:50 230 17 3.2-0.0 Light snow.
2020-Jan-24 09:20 220 20 5.4-0.0 Showers in the vicinity.
2020-Jan-24 08:50 230 20 5.4-0.0 Showers in the vicinity.
2020-Jan-24 08:20 220 17 5.4-0.0 Light snow.